When you browse on this site, cookies collect data to enhance your experience and personalize the content and advertising you see.
Visit our Privacy Policy to learn more. By continuing to use the site, you agree to this use of cookies and data.
  • In Austria
  • List of Countries
  • For 7 days
  • Water Temperature
  • Satellite Maps
  • Weather Map
  • News
  • Weather Widgets
  • user-avatar
    Login

    Hourly Weather Mingachevir

    Today, 17 July, Wednesday

    Time Temperature Precipitation Wind Pressure Humidity
    00:00 +28°C° 0 mm 2 mps 746 mmHg 55%
    01:00 +27°C° 0 mm 2 mps 746 mmHg 55%
    02:00 +27°C° 0 mm 2 mps 745 mmHg 55%
    03:00 +26°C° 0 mm 2 mps 745 mmHg 56%
    04:00 +26°C° 0 mm 2 mps 746 mmHg 56%
    05:00 +27°C° 0 mm 2 mps 746 mmHg 56%
    06:00 +27°C° 0 mm 2 mps 747 mmHg 55%
    07:00 +28°C° 0 mm 2 mps 747 mmHg 51%
    08:00 +30°C° 0 mm 3 mps 746 mmHg 47%
    09:00 +31°C° 0 mm 3 mps 746 mmHg 43%
    10:00 +34°C° 0 mm 4 mps 746 mmHg 41%
    11:00 +35°C° 0 mm 4 mps 746 mmHg 39%
    12:00 +37°C° 0 mm 5 mps 746 mmHg 37%
    13:00 +39°C° 0 mm 6 mps 746 mmHg 36%
    14:00 +39°C° 0 mm 6 mps 745 mmHg 34%
    15:00 +40°C° 0 mm 7 mps 745 mmHg 33%
    16:00 +39°C° 0 mm 7 mps 745 mmHg 35%
    17:00 +38°C° 0 mm 8 mps 745 mmHg 37%
    18:00 +37°C° 0 mm 9 mps 745 mmHg 39%
    19:00 +34°C° 0 mm 8 mps 745 mmHg 43%
    20:00 +32°C° 0 mm 7 mps 746 mmHg 47%
    21:00 +29°C° 0 mm 6 mps 746 mmHg 50%
    22:00 +29°C° 0 mm 6 mps 746 mmHg 52%
    23:00 +28°C° 0 mm 6 mps 746 mmHg 54%

    Tomorrow, 18 July, Thursday

    Time Temperature Precipitation Wind Pressure Humidity
    00:00 +28°C° 0 mm 5 mps 746 mmHg 56%
    01:00 +27°C° 0 mm 5 mps 746 mmHg 59%
    02:00 +26°C° 0 mm 4 mps 746 mmHg 62%
    03:00 +26°C° 0 mm 3 mps 746 mmHg 64%
    04:00 +26°C° 0 mm 3 mps 746 mmHg 62%
    05:00 +26°C° 0 mm 2 mps 746 mmHg 61%
    06:00 +27°C° 0 mm 2 mps 747 mmHg 59%
    07:00 +28°C° 0 mm 3 mps 747 mmHg 54%
    08:00 +30°C° 0 mm 3 mps 747 mmHg 49%
    09:00 +33°C° 0 mm 4 mps 747 mmHg 44%
    10:00 +34°C° 0 mm 4 mps 746 mmHg 41%
    11:00 +35°C° 0 mm 4 mps 746 mmHg 39%
    12:00 +37°C° 0 mm 4 mps 745 mmHg 37%
    13:00 +37°C° 0 mm 4 mps 745 mmHg 35%
    14:00 +38°C° 0 mm 3 mps 745 mmHg 33%
    15:00 +39°C° 0 mm 3 mps 744 mmHg 32%
    16:00 +39°C° 0 mm 3 mps 744 mmHg 32%
    17:00 +38°C° 0 mm 3 mps 744 mmHg 33%
    18:00 +38°C° 0 mm 3 mps 744 mmHg 33%
    19:00 +36°C° 0 mm 3 mps 744 mmHg 36%
    20:00 +34°C° 0 mm 3 mps 745 mmHg 39%
    21:00 +32°C° 0 mm 4 mps 745 mmHg 43%
    22:00 +30°C° 0 mm 4 mps 745 mmHg 44%
    23:00 +29°C° 0 mm 4 mps 746 mmHg 46%

    Day after tomorrow, 19 July, Friday

    Time Temperature Precipitation Wind Pressure Humidity
    00:00 +28°C° 0 mm 4 mps 746 mmHg 48%
    01:00 +28°C° 0 mm 3 mps 746 mmHg 51%
    02:00 +27°C° 0 mm 2 mps 746 mmHg 54%
    03:00 +26°C° 0 mm 1 mps 746 mmHg 56%
    04:00 +27°C° 0 mm 2 mps 746 mmHg 57%
    05:00 +27°C° 0 mm 3 mps 747 mmHg 57%
    06:00 +28°C° 0 mm 4 mps 747 mmHg 57%
    07:00 +30°C° 0 mm 4 mps 747 mmHg 52%
    08:00 +32°C° 0 mm 4 mps 747 mmHg 47%
    09:00 +34°C° 0 mm 4 mps 748 mmHg 43%
    10:00 +35°C° 0 mm 3 mps 747 mmHg 39%
    11:00 +37°C° 0 mm 3 mps 747 mmHg 36%
    12:00 +38°C° 0 mm 2 mps 747 mmHg 33%
    13:00 +39°C° 0 mm 2 mps 747 mmHg 32%
    14:00 +39°C° 0 mm 2 mps 747 mmHg 30%
    15:00 +40°C° 0 mm 2 mps 747 mmHg 29%
    16:00 +40°C° 0 mm 3 mps 747 mmHg 30%
    17:00 +39°C° 0 mm 3 mps 747 mmHg 31%
    18:00 +40°C° 0 mm 4 mps 748 mmHg 32%
    19:00 +37°C° 0 mm 4 mps 748 mmHg 35%
    20:00 +35°C° 0 mm 5 mps 749 mmHg 39%
    21:00 +33°C° 0 mm 6 mps 750 mmHg 42%
    22:00 +32°C° 0 mm 5 mps 750 mmHg 43%
    23:00 +30°C° 0 mm 4 mps 750 mmHg 45%

    20 July, Saturday

    Time Temperature Precipitation Wind Pressure Humidity
    00:00 +30°C° 0 mm 3 mps 750 mmHg 47%
    01:00 +29°C° 0 mm 2 mps 751 mmHg 48%
    02:00 +28°C° 0 mm 1 mps 751 mmHg 50%
    03:00 +28°C° 0 mm 1 mps 751 mmHg 51%
    04:00 +28°C° 0 mm 1 mps 751 mmHg 50%
    05:00 +29°C° 0 mm 1 mps 751 mmHg 49%
    06:00 +29°C° 0 mm 1 mps 752 mmHg 49%
    07:00 +30°C° 0 mm 1 mps 752 mmHg 44%
    08:00 +32°C° 0 mm 2 mps 752 mmHg 40%
    09:00 +35°C° 0 mm 3 mps 752 mmHg 36%
    10:00 +36°C° 0 mm 4 mps 752 mmHg 33%
    11:00 +39°C° 0 mm 5 mps 752 mmHg 30%
    12:00 +40°C° 0 mm 6 mps 752 mmHg 28%
    13:00 +41°C° 0 mm 6 mps 752 mmHg 26%
    14:00 +41°C° 0 mm 7 mps 751 mmHg 25%
    15:00 +43°C° 0 mm 7 mps 751 mmHg 24%
    16:00 +41°C° 0 mm 8 mps 751 mmHg 25%
    17:00 +40°C° 0 mm 9 mps 752 mmHg 26%
    18:00 +39°C° 0 mm 9 mps 752 mmHg 28%
    19:00 +37°C° 0 mm 9 mps 752 mmHg 31%
    20:00 +35°C° 0 mm 8 mps 753 mmHg 35%
    21:00 +33°C° 0 mm 8 mps 753 mmHg 38%
    22:00 +32°C° 0 mm 7 mps 753 mmHg 39%
    23:00 +32°C° 0 mm 6 mps 753 mmHg 41%

    21 July, Sunday

    Time Temperature Precipitation Wind Pressure Humidity
    00:00 +30°C° 0 mm 5 mps 753 mmHg 42%
    01:00 +29°C° 0 mm 5 mps 753 mmHg 43%
    02:00 +29°C° 0 mm 4 mps 753 mmHg 45%
    03:00 +28°C° 0 mm 4 mps 753 mmHg 46%
    04:00 +28°C° 0 mm 4 mps 753 mmHg 45%
    05:00 +29°C° 0 mm 4 mps 753 mmHg 45%
    06:00 +29°C° 0 mm 4 mps 753 mmHg 44%
    07:00 +32°C° 0 mm 5 mps 753 mmHg 40%
    08:00 +33°C° 0 mm 5 mps 753 mmHg 37%
    09:00 +35°C° 0 mm 6 mps 753 mmHg 33%
    10:00 +36°C° 0 mm 6 mps 752 mmHg 31%
    11:00 +38°C° 0 mm 6 mps 752 mmHg 29%
    12:00 +39°C° 0 mm 6 mps 751 mmHg 27%
    13:00 +40°C° 0 mm 6 mps 751 mmHg 26%
    14:00 +41°C° 0 mm 6 mps 750 mmHg 25%
    15:00 +41°C° 0 mm 6 mps 749 mmHg 24%
    16:00 +41°C° 0 mm 5 mps 749 mmHg 25%
    17:00 +40°C° 0 mm 5 mps 749 mmHg 26%
    18:00 +40°C° 0 mm 5 mps 749 mmHg 27%
    19:00 +37°C° 0 mm 5 mps 750 mmHg 31%
    20:00 +35°C° 0 mm 5 mps 750 mmHg 34%
    21:00 +33°C° 0 mm 5 mps 750 mmHg 38%
    22:00 +32°C° 0 mm 4 mps 750 mmHg 40%
    23:00 +30°C° 0 mm 4 mps 750 mmHg 43%

    22 July, Monday

    Time Temperature Precipitation Wind Pressure Humidity
    00:00 +29°C° 0 mm 3 mps 750 mmHg 45%
    01:00 +28°C° 0 mm 3 mps 750 mmHg 47%
    02:00 +27°C° 0 mm 2 mps 750 mmHg 48%
    03:00 +27°C° 0 mm 1 mps 749 mmHg 50%
    04:00 +28°C° 0 mm 1 mps 750 mmHg 49%
    05:00 +28°C° 0 mm 1 mps 750 mmHg 48%
    06:00 +29°C° 0 mm 1 mps 750 mmHg 47%
    07:00 +30°C° 0 mm 1 mps 750 mmHg 43%
    08:00 +32°C° 0 mm 1 mps 750 mmHg 38%
    09:00 +35°C° 0 mm 2 mps 750 mmHg 33%
    10:00 +36°C° 0 mm 3 mps 749 mmHg 31%
    11:00 +37°C° 0 mm 4 mps 749 mmHg 28%
    12:00 +40°C° 0 mm 4 mps 749 mmHg 26%
    13:00 +40°C° 0 mm 5 mps 748 mmHg 25%
    14:00 +41°C° 0 mm 5 mps 748 mmHg 24%
    15:00 +42°C° 0 mm 6 mps 747 mmHg 23%
    16:00 +41°C° 0 mm 6 mps 747 mmHg 24%
    17:00 +41°C° 0 mm 6 mps 747 mmHg 24%
    18:00 +40°C° 0 mm 6 mps 747 mmHg 25%
    19:00 +38°C° 0 mm 6 mps 748 mmHg 28%
    20:00 +35°C° 0 mm 7 mps 748 mmHg 31%
    21:00 +33°C° 0 mm 8 mps 749 mmHg 34%
    22:00 +33°C° 0 mm 7 mps 749 mmHg 33%
    23:00 +32°C° 0 mm 6 mps 749 mmHg 33%
    Show more